Location: Potomac
(46.8816°N, 113.5795°W)
Time: 13:01:20
(UTC+00:00)

Gurwin Techsat 1B - Pass Details

Date: 06 July 2022
Orbit: 812 x 813 km, 98.8° (Epoch: 13 August)

Event Time Altitude Azimuth Distance (km) Brightness Sun altitude
Rises 10:10:22 0° 15° (NNE) 3,347 13.3 -12.5°
Reaches altitude 10° 10:12:44 10° 17° (NNE) 2,411 12.3 -12.3°
Maximum altitude 10:18:05 78° 104° (ESE) 836 8.7 -11.8°
Enters shadow 10:23:10 11° 191° (S) 2,313 10.4 -11.2°
